Location: Ahausen
(50.4985°N, 8.2722°E)
Time: 15:24:17
(UTC+00:00)

Cosmos 2227 Rocket - Pass Details

Date: 18 September 2020
Orbit: 840 x 844 km, 71.0° (Epoch: 22 October)

Event Time Altitude Azimuth Distance (km) Brightness Sun altitude
Rises 18:14:22 0° 244° (WSW) 3,391 6.3 -7.3°
Reaches altitude 10° 18:17:07 10° 255° (WSW) 2,459 5.8 -7.8°
Maximum altitude 18:22:02 30° 316° (NW) 1,478 4.2 -8.5°
Drops below altitude 10° 18:26:58 10° 16° (NNE) 2,469 4.6 -9.3°
Sets 18:29:44 0° 28° (NNE) 3,407 5.2 -9.7°
